Location: Job
(45.2149°N, 2.1259°E)
Time: 01:42:52
(UTC+00:00)

Daily predictions for brighter satellites

Satellite Brightness Start Highest point End
(mag) Time Altitude Azimuth Time Altitude Azimuth Time Altitude Azimuth
ATLAS 3B R/B 4.0 03:30:35 31° NNE 03:31:23 31° NE 03:37:35 10° E
Lacrosse 4 Rocket 4.3 03:38:11 15° ESE 03:38:11 15° ESE 03:39:08 10° ESE
ALOS 4.1 03:50:37 10° NNE 03:53:17 27° ENE 03:53:17 27° ENE
NOSS 3-2 (C) 3.9 04:00:07 79° SW 04:00:07 79° SW 04:08:36 10° SSE
NOSS 3-4 (A) 3.6 04:00:50 64° ESE 04:00:50 64° ESE 04:06:43 10° NE
NOSS 3-4 (C) 3.7 04:00:54 63° ESE 04:00:54 63° ESE 04:06:50 10° NE
CENTAUR R/B 3.0 04:01:35 76° W 04:02:02 79° SW 04:10:54 10° SSE
Milstar 3 Cent rocket 4.4 04:00:16 21° S 04:02:14 23° SSE 04:10:19 10° ESE
SL-4 R/B 4.4 04:15:02 17° NE 04:15:02 17° NE 04:16:06 10° NE
Cosmos 1151 Rocket 4.4 04:17:01 36° ESE 04:17:01 36° ESE 04:19:57 10° SSE
ATLAS 2AS CENTAUR R/B 3.2 04:15:30 29° SSW 04:20:02 73° ESE 04:27:54 10° NE
Cosmos 1680 Rocket 4.5 04:20:02 31° NNE 04:22:02 45° ENE 04:27:07 10° SE
Atlas Centaur 2 4.2 04:26:40 17° SSW 04:28:17 19° S 04:32:16 10° SE
ATLAS 5 CENTAUR R/B 4.3 04:31:19 14° NNE 04:31:19 14° NNE 04:31:41 10° NNE
RESURS DK-1 4.3 04:27:21 10° S 04:30:57 29° ESE 04:34:36 10° NE
Lacrosse 5 1.9 04:32:03 76° SE 04:32:05 76° SE 04:37:10 10° NE
ATLAS CENTAUR R/B 3.0 04:32:06 26° NE 04:32:08 26° NE 04:35:27 10° ESE
ADEOS 3.6 04:29:37 10° NNE 04:34:52 75° ESE 04:40:05 10° S
Cosmos 1328 Rocket 3.8 04:35:39 65° ENE 04:35:53 66° E 04:40:17 10° SSE
Cosmos 2263 Rocket 2.6 04:43:11 44° NNW 04:43:11 44° NNW 04:47:38 10° NNE
Gbstr 26 Del rocket 3.3 04:43:34 52° ENE 04:43:34 52° ENE 04:46:44 10° ESE
SJ 16-02 2.0 04:45:52 44° N 04:45:52 44° N 04:48:59 10° NNE
Cosmos 1898 Rocket 4.1 04:46:52 10° S 04:52:03 57° ESE 04:57:18 10° NNE
Meteor 1-26 Rocket 4.1 04:48:58 17° NNW 04:53:33 82° W 04:59:08 10° S
FALCON 9 DEB 4.1 04:56:35 42° ENE 04:56:35 42° ENE 04:58:51 10° ENE
FALCON 9 DEB 4.1 04:56:45 41° ENE 04:56:45 41° ENE 04:58:57 10° ENE
FENGYUN 3A 3.6 04:54:24 10° N 04:59:44 60° WNW 05:05:02 10° SSW
Cosmos 1408 Rocket 3.5 04:57:13 10° S 05:01:40 86° ESE 05:06:10 10° N
Cosmos 2181 Rocket 3.8 04:58:32 10° NNW 05:04:42 68° W 05:10:46 10° S
COSMO-SKYMED 1 2.5 05:01:00 10° SSE 05:05:21 90° NNW 05:07:59 24° NNW
USA 307 4.3 05:05:08 25° N 05:05:34 25° N 05:09:11 10° ENE
Cosmos 1709 Rocket 4.2 05:00:18 10° SSW 05:06:26 48° WNW 05:12:36 10° N
Cosmos 1937 Rocket 4.1 05:04:07 10° S 05:09:08 58° ESE 05:14:15 10° NNE
USA 308 4.3 05:11:14 24° NNW 05:11:58 25° N 05:15:35 10° ENE
Meteor 2-3 Rocket 3.8 05:08:06 10° SSW 05:13:42 55° WNW 05:19:24 10° N
Lacrosse 4 Rocket 2.3 05:14:32 33° SW 05:14:32 33° SW 05:17:57 10° S
CZ-4C R/B 1.9 05:11:05 19° SW 05:14:45 83° NW 05:20:42 10° NE
MOS 1 Rocket 4.2 05:11:09 10° SE 05:15:48 51° ENE 05:20:46 10° N
Cosmos 1943 4.1 05:17:53 27° WSW 05:17:53 27° WSW 05:22:08 10° SSW
Cosmos 1689 Rocket 1.9 05:15:31 10° SSE 05:18:12 77° S 05:18:12 77° S
CZ-4B R/B 3.0 05:13:51 10° NNE 05:18:23 89° W 05:22:46 10° SSW
FALCON 9 DEB 2.9 05:18:33 66° NNW 05:18:33 66° NNW 05:21:42 10° NE
SAR-Lupe-4 3.6 05:18:43 10° S 05:22:12 52° W 05:22:38 49° WNW
ATLAS 3B R/B 2.7 05:17:51 21° NW 05:22:47 80° SW 05:30:00 10° SSE
Aureole 2 Rocket 3.8 05:20:54 10° S 05:23:09 29° ESE 05:25:25 10° NE
Cosmos 1862 3.6 05:22:26 10° S 05:26:28 69° E 05:30:30 10° NNE
Genesis I 3.0 05:24:54 19° SW 05:27:32 79° NW 05:31:24 10° NE
YAOGAN 6 4.2 05:25:45 10° NNE 05:29:00 35° E 05:32:14 10° SSE
deb Chang Zheng 4 3.9 05:28:01 10° N 05:32:06 40° WNW 05:36:10 10° SW
ALOS 3.2 05:28:15 10° N 05:31:45 27° NW 05:31:45 27° NW
Cosmos 858 Rocket 4.4 05:28:11 10° SSW 05:33:24 89° WNW 05:38:41 10° NNE
Cosmos 990 Rocket 4.0 05:29:37 10° SW 05:34:46 56° WNW 05:39:58 10° NNE
Cosmos 2074 Rocket 3.9 05:30:09 10° SSW 05:36:19 70° W 05:42:32 10° N
PSLV R/B 4.2 05:34:04 10° NNE 05:37:55 64° E 05:41:39 10° S
ASTRO F (AKARI) 4.1 05:36:46 10° NNE 05:39:52 87° E 05:43:01 10° SSW
USA 305 4.3 05:38:55 19° NNW 05:41:02 28° N 05:44:46 10° ENE
BREEZE M DEB (TANK) 3.5 05:32:25 10° SW 05:41:16 54° SSE 05:44:15 10° ENE
Meteor 1-31 Rocket 4.2 05:38:38 10° NNW 05:40:29 21° NW 05:40:29 21° NW
Cosmos 405 Rocket 2.5 05:38:34 10° S 05:42:15 87° W 05:46:02 10° N
EO 1 Delta rocket 3.8 05:41:32 10° S 05:46:37 69° W 05:51:14 10° NNW
Cosmos 1812 2.6 05:43:41 10° NNW 05:47:32 72° W 05:51:21 10° S
USA 306 4.2 05:47:01 17° NW 05:49:32 29° NNE 05:53:19 10° ENE
Cosmos 2228 Rocket 3.0 05:45:39 10° NNW 05:50:04 72° W 05:54:26 10° S
Cosmos 1515 Rocket 4.2 05:46:49 12° NNW 05:50:30 34° W 05:54:32 10° SSW
NOSS 3-4 (A) 4.2 05:48:19 18° W 05:51:52 32° NW 05:57:36 10° NNE
CENTAUR R/B 4.3 05:48:50 17° W 05:51:55 21° WSW 05:57:55 10° SSW
NOSS 3-4 (C) 4.2 05:48:24 18° W 05:52:00 32° NW 05:57:44 10° NNE
PSLV R/B 4.5 05:48:15 10° SSW 05:52:07 37° W 05:55:46 11° NNW
SL-4 R/B 2.9 05:50:37 19° NW 05:52:39 31° N 05:55:58 10° ENE
DMSP B5D1-3 4.5 05:48:10 10° S 05:53:19 79° WSW 05:58:31 10° NNW
Cosmos 1782 4.0 05:52:14 21° WNW 05:53:21 23° W 05:56:34 10° SW
SKYMED 2 4.5 05:49:51 10° SSW 05:53:36 28° W 05:56:36 14° NW
Cosmos 2184 Rocket 4.1 05:47:44 10° SSW 05:53:54 55° WNW 06:00:10 10° N
USA-17 4.5 05:50:59 10° SW 05:54:37 52° NW 05:57:41 10° NNE
ERS-2 4.4 05:53:50 10° WSW 05:53:52 10° WSW 05:53:52 10° WSW
FALCON 9 DEB 3.8 05:56:58 22° WNW 05:58:26 34° NNW 06:01:25 10° NE
USA 234 3.8 05:52:40 10° NE 05:59:09 63° SE 06:05:37 10° SW
Spot 2 4.4 05:55:07 10° NNE 06:00:19 82° WNW 06:05:22 10° SSW
Cosmos 1844 Rocket 2.8 05:54:54 10° SW 06:00:26 54° WNW 06:06:01 10° NNE
EXPRESS MD2 4.1 06:03:36 16° WNW 06:06:46 72° NNE 06:14:36 10° ESE
Cosmos 1707 Rocket 4.0 06:02:46 10° N 06:07:06 65° E 06:11:23 10° SSE
COSMOS 2455 2.9 06:02:29 10° SSW 06:08:32 87° ESE 06:14:36 10° NNE
RESURS DK-1 3.2 06:05:18 10° WSW 06:08:56 29° NW 06:12:37 10° N
MOS 1-B 4.4 06:03:24 10° NNE 06:09:16 88° ESE 06:15:04 10° SSW
BREEZE-M (TANK) 4.2 06:02:12 10° SW 06:09:55 40° SSE 06:12:40 10° E
ATLAS CENTAUR R/B 2.0 06:08:18 14° WNW 06:11:02 33° WSW 06:14:36 10° S
BREEZE-M DEB 3.8 06:02:56 13° WNW 06:11:23 56° SW 06:14:29 10° SE
ATLAS 2AS CENTAUR R/B 3.6 06:04:23 10° WSW 06:11:41 38° NW 06:18:51 10° NNE
NOAA 6 4.0 06:07:14 10° NNE 06:12:23 79° WNW 06:17:28 10° SSW
Cosmos 1500 Rocket 4.2 06:09:45 10° SW 06:13:38 32° WNW 06:17:33 10° N
Cosmos 1844 3.8 06:08:57 10° SW 06:14:21 52° WNW 06:19:49 10° NNE
H-2A R/B 3.3 06:11:19 10° N 06:14:54 35° WNW 06:18:27 10° SW
Lacrosse 5 2.7 06:11:17 12° W 06:15:29 32° NNW 06:20:03 10° NE
Atlas Centaur 2 4.2 06:12:50 10° SW 06:16:22 16° SSW 06:19:30 10° SSE
CZ-4B DEB 4.2 06:12:05 10° N 06:17:32 71° WNW 06:22:57 10° SSW
Cosmos 1437 Rocket 2.8 06:13:58 10° NNW 06:17:39 52° W 06:21:19 10° S
Cosmos 372 Rocket 3.9 06:12:45 10° SSW 06:17:49 72° WNW 06:22:56 10° NNE
Okean O Rocket 1.9 06:16:38 10° NNE 06:21:06 75° ESE 06:25:32 10° S
Cosmos 1242 Rocket 4.2 06:19:14 10° N 06:22:38 36° ENE 06:26:02 10° SE
SJ 16-02 3.3 06:23:01 10° WNW 06:23:54 10° NW 06:24:48 10° NW
USA 81 4.1 06:18:42 10° S 06:23:58 88° E 06:29:16 10° N
PAYLOAD B 4.2 06:18:27 10° NNE 06:23:59 76° WNW 06:29:27 10° SSW
SMAP 3.1 06:20:07 10° NNE 06:24:48 88° WNW 06:29:28 10° SSW
Cosmos 2263 Rocket 4.0 06:25:30 10° NW 06:27:28 12° NW 06:29:25 10° NNW
Gbstr 26 Del rocket 4.2 06:26:21 10° W 06:29:25 24° SW 06:32:42 10° SSE
ATLAS 5 CENTAUR R/B 2.1 06:27:00 10° SSW 06:30:57 61° ESE 06:35:22 10° NE
FALCON 9 DEB 4.2 06:29:11 10° WNW 06:31:57 26° NNW 06:34:43 10° NE
FALCON 9 DEB 4.3 06:29:17 10° WNW 06:32:02 25° NNW 06:34:47 10° NE
Sich 1 3.3 06:29:56 10° SSW 06:34:15 51° WNW 06:38:35 10° N
Cosmos 2218 Rocket 4.3 06:28:07 10° S 06:34:21 74° E 06:40:34 10° NNE
Nadezhda 3 Rocket 4.5 06:29:29 10° NNW 06:35:16 39° W 06:40:57 10° SSW
CZ-2C R/B 2.7 06:29:53 10° S 06:35:22 78° WSW 06:40:47 10° NNW
AQUARIUS 4.1 06:34:03 10° N 06:38:32 71° WNW 06:43:00 10° SSW
Cosmos 2366 rocket 4.3 06:32:24 10° S 06:38:43 77° E 06:45:01 10° N
H-2A R/B 2.8 06:35:23 10° N 06:38:56 36° WNW 06:42:27 10° SW
Envisat 3.4 06:34:18 10° N 06:39:05 42° WNW 06:43:49 10° SW
